| time (UTC) | temp F | wind direction | speed knots | gust knots | rain 1hr in | rain 24hr in | rain mn in | humidity % | barometer mb |
| 20260506233604 | 55 | 126 | 2.6 | 3.5 | 0.00 | 0.18 | 0.00 | 91 | 1013.1 |
| 20260506232703 | 55 | 109 | 1.7 | 2.6 | 0.00 | 0.18 | 0.00 | 91 | 1013.1 |
| 20260506231803 | 55 | 67 | 0.9 | 1.7 | 0.00 | 0.18 | 0.00 | 91 | 1013.1 |
| 20260506230904 | 55 | 77 | 1.7 | 2.6 | 0.00 | 0.18 | 0.00 | 90 | 1013.1 |
| 20260506230004 | 55 | 98 | 1.7 | 4.3 | 0.00 | 0.18 | 0.00 | 90 | 1013.2 |
| 20260506225403 | 55 | 95 | 0.9 | 3.5 | 0.00 | 0.18 | 0.00 | 90 | 1013.4 |
| 20260506224503 | 55 | 115 | 1.7 | 3.5 | 0.00 | 0.18 | 0.00 | 90 | 1013.3 |
| 20260506223603 | 56 | 117 | 2.6 | 4.3 | 0.00 | 0.18 | 0.00 | 89 | 1013.4 |
| 20260506222703 | 57 | 118 | 0.9 | 4.3 | 0.00 | 0.18 | 0.00 | 89 | 1013.3 |
| 20260506221803 | 57 | 56 | 0.9 | 3.5 | 0.00 | 0.18 | 0.00 | 90 | 1013.2 |
| 20260506220903 | 57 | 110 | 0.9 | 1.7 | 0.00 | 0.18 | 0.00 | 90 | 1013.4 |
| 20260506220003 | 57 | 88 | 0.9 | 1.7 | 0.00 | 0.18 | 0.00 | 90 | 1013.4 |
| 20260506215403 | 57 | 109 | 1.7 | 3.5 | 0.00 | 0.18 | 0.18 | 90 | 1013.4 |
| 20260506214503 | 57 | 77 | 1.7 | 3.5 | 0.00 | 0.18 | 0.18 | 91 | 1013.4 |
| 20260506213603 | 56 | 91 | 1.7 | 3.5 | 0.00 | 0.18 | 0.18 | 90 | 1013.5 |
| 20260506212703 | 57 | 117 | 1.7 | 2.6 | 0.00 | 0.18 | 0.18 | 90 | 1013.3 |
| 20260506211803 | 57 | 87 | 1.7 | 2.6 | 0.00 | 0.18 | 0.18 | 90 | 1013.7 |
| 20260506210903 | 57 | 88 | 1.7 | 3.5 | 0.00 | 0.18 | 0.18 | 89 | 1013.5 |
| 20260506210004 | 58 | 118 | 2.6 | 5.2 | 0.00 | 0.18 | 0.18 | 89 | 1013.8 |
| 20260506205404 | 58 | 118 | 0.9 | 3.5 | 0.00 | 0.18 | 0.18 | 89 | 1013.5 |
| 20260506204504 | 58 | 85 | 0.9 | 2.6 | 0.00 | 0.18 | 0.18 | 88 | 1013.6 |
| 20260506203603 | 58 | 88 | 1.7 | 2.6 | 0.00 | 0.18 | 0.18 | 88 | 1013.5 |
| 20260506202704 | 58 | 99 | 0.9 | 1.7 | 0.00 | 0.18 | 0.18 | 87 | 1013.2 |
| 20260506201803 | 58 | 111 | 1.7 | 2.6 | 0.00 | 0.18 | 0.18 | 87 | 1013.3 |
| 20260506200903 | 59 | 88 | 0.9 | 1.7 | 0.00 | 0.18 | 0.18 | 86 | 1013.4 |
| 20260506200004 | 59 | 55 | 1.7 | 2.6 | 0.00 | 0.18 | 0.18 | 87 | 1013.2 |
| 20260506195403 | 59 | 60 | 0.9 | 1.7 | 0.00 | 0.18 | 0.18 | 87 | 1013.2 |
| 20260506194503 | 59 | 96 | 0.9 | 1.7 | 0.00 | 0.18 | 0.18 | 88 | 1013.0 |
| 20260506193604 | 59 | 56 | 1.7 | 3.5 | 0.00 | 0.18 | 0.18 | 88 | 1012.7 |
| 20260506192703 | 60 | 56 | 2.6 | 3.5 | 0.00 | 0.18 | 0.18 | 86 | 1012.9 |
| 20260506191803 | 60 | 122 | 0.9 | 3.5 | 0.00 | 0.18 | 0.18 | 86 | 1012.7 |
| 20260506190904 | 61 | 100 | 0.9 | 1.7 | 0.00 | 0.18 | 0.18 | 85 | 1012.5 |
| 20260506190004 | 61 | 125 | 0.9 | 2.6 | 0.00 | 0.18 | 0.18 | 84 | 1012.4 |
| 20260506185403 | 62 | 144 | 1.7 | 3.5 | 0.00 | 0.18 | 0.18 | 82 | 1012.4 |
| 20260506184504 | 62 | 71 | 0.9 | 2.6 | 0.00 | 0.18 | 0.18 | 81 | 1012.1 |
| 20260506183604 | 62 | 45 | 1.7 | 4.3 | 0.00 | 0.18 | 0.18 | 80 | 1012.2 |
| 20260506182704 | 63 | 61 | 1.7 | 3.5 | 0.00 | 0.18 | 0.18 | 80 | 1012.3 |
| 20260506181803 | 64 | 84 | 1.7 | 3.5 | 0.00 | 0.18 | 0.18 | 78 | 1012.1 |
| 20260506180903 | 64 | 139 | 1.7 | 3.5 | 0.00 | 0.18 | 0.18 | 78 | 1012.2 |
| 20260506180004 | 64 | 118 | 1.7 | 3.5 | 0.00 | 0.18 | 0.18 | 74 | 1011.9 |
| 20260506175404 | 64 | 88 | 1.7 | 4.3 | 0.00 | 0.18 | 0.18 | 74 | 1012.0 |
| 20260506174503 | 65 | 106 | 0.9 | 3.5 | 0.00 | 0.18 | 0.18 | 73 | 1011.9 |
| 20260506173603 | 65 | 44 | 0.9 | 2.6 | 0.00 | 0.18 | 0.18 | 75 | 1012.1 |
| 20260506172703 | 65 | 36 | 1.7 | 5.2 | 0.00 | 0.18 | 0.18 | 77 | 1012.0 |
| 20260506171803 | 65 | 62 | 2.6 | 5.2 | 0.00 | 0.18 | 0.18 | 76 | 1011.9 |
| 20260506170903 | 64 | 53 | 2.6 | 6.1 | 0.00 | 0.18 | 0.18 | 77 | 1011.9 |
| 20260506170003 | 64 | 98 | 2.6 | 5.2 | 0.00 | 0.18 | 0.18 | 80 | 1011.8 |
| 20260506165403 | 64 | 120 | 2.6 | 4.3 | 0.00 | 0.18 | 0.18 | 80 | 1012.0 |
| 20260506164504 | 64 | 131 | 2.6 | 5.2 | 0.00 | 0.18 | 0.18 | 79 | 1012.1 |
| 20260506163603 | 65 | 138 | 2.6 | 5.2 | 0.00 | 0.18 | 0.18 | 78 | 1012.0 |
| 20260506162703 | 64 | 205 | 1.7 | 3.5 | 0.00 | 0.18 | 0.18 | 75 | 1011.8 |
| 20260506161803 | 63 | 23 | 2.6 | 7.8 | 0.00 | 0.18 | 0.18 | 79 | 1011.8 |
| 20260506160903 | 63 | 71 | 2.6 | 7.8 | 0.00 | 0.18 | 0.18 | 80 | 1011.5 |
| 20260506160003 | 61 | 58 | 1.7 | 3.5 | 0.01 | 0.18 | 0.18 | 77 | 1011.8 |
| 20260506155403 | 62 | 101 | 1.7 | 3.5 | 0.03 | 0.18 | 0.18 | 78 | 1011.9 |
| 20260506154503 | 62 | 38 | 1.7 | 2.6 | 0.04 | 0.18 | 0.18 | 78 | 1012.1 |
| 20260506153603 | 61 | 41 | 1.7 | 4.3 | 0.04 | 0.18 | 0.18 | 74 | 1012.1 |
| 20260506152703 | 61 | 32 | 1.7 | 4.3 | 0.05 | 0.18 | 0.18 | 80 | 1012.2 |
| 20260506151803 | 61 | 50 | 3.5 | 7.0 | 0.07 | 0.18 | 0.18 | 82 | 1012.1 |
| 20260506150903 | 60 | 37 | 3.5 | 7.8 | 0.13 | 0.18 | 0.18 | 83 | 1011.7 |
| 20260506150004 | 61 | 45 | 3.5 | 5.2 | 0.13 | 0.17 | 0.17 | 87 | 1012.0 |
| 20260506145403 | 61 | 28 | 2.6 | 5.2 | 0.13 | 0.15 | 0.15 | 87 | 1012.1 |
| 20260506144504 | 61 | 36 | 1.7 | 3.5 | 0.12 | 0.14 | 0.14 | 87 | 1012.1 |
| 20260506143603 | 61 | 37 | 1.7 | 5.2 | 0.11 | 0.13 | 0.13 | 86 | 1012.3 |
| 20260506142704 | 61 | 54 | 2.6 | 5.2 | 0.11 | 0.13 | 0.13 | 85 | 1012.1 |
| 20260506141803 | 62 | 65 | 0.9 | 3.5 | 0.09 | 0.10 | 0.10 | 83 | 1012.2 |
| 20260506140903 | 62 | 67 | 1.7 | 3.5 | 0.05 | 0.05 | 0.05 | 82 | 1012.7 |
| 20260506140004 | 62 | 39 | 2.6 | 5.2 | 0.03 | 0.03 | 0.03 | 83 | 1012.5 |
| 20260506135403 | 62 | 38 | 4.3 | 7.8 | 0.02 | 0.02 | 0.02 | 83 | 1012.4 |
| 20260506134503 | 63 | 46 | 4.3 | 7.8 | 0.02 | 0.02 | 0.02 | 83 | 1012.0 |
| 20260506133603 | 64 | 74 | 4.3 | 7.8 | 0.02 | 0.02 | 0.02 | 83 | 1012.3 |
| 20260506132703 | 64 | 72 | 4.3 | 8.7 | 0.02 | 0.02 | 0.02 | 80 | 1012.4 |
| 20260506131803 | 65 | 64 | 4.3 | 9.6 | 0.01 | 0.01 | 0.01 | 77 | 1012.4 |
| 20260506130903 | 65 | 60 | 4.3 | 8.7 | 0.00 | 0.00 | 0.00 | 73 | 1012.4 |
| 20260506130003 | 64 | 103 | 6.1 | 12.2 | 0.00 | 0.00 | 0.00 | 73 | 1012.2 |
| 20260506125403 | 65 | 101 | 5.2 | 11.3 | 0.00 | 0.00 | 0.00 | 70 | 1012.4 |
| 20260506124504 | 65 | 82 | 6.1 | 13.0 | 0.00 | 0.00 | 0.00 | 68 | 1012.1 |
| 20260506123603 | 66 | 103 | 6.1 | 13.9 | 0.00 | 0.00 | 0.00 | 68 | 1012.1 |
| 20260506122703 | 67 | 110 | 5.2 | 11.3 | 0.00 | 0.00 | 0.00 | 63 | 1011.9 |
| 20260506121803 | 68 | 103 | 5.2 | 13.0 | 0.00 | 0.00 | 0.00 | 62 | 1011.6 |
| 20260506120904 | 69 | 115 | 3.5 | 10.4 | 0.00 | 0.00 | 0.00 | 60 | 1011.7 |
| 20260506120003 | 69 | 56 | 3.5 | 7.8 | 0.00 | 0.00 | 0.00 | 60 | 1011.5 |
| 20260506115403 | 68 | 33 | 4.3 | 8.7 | 0.00 | 0.00 | 0.00 | 62 | 1011.2 |
| 20260506114503 | 69 | 21 | 4.3 | 7.8 | 0.00 | 0.00 | 0.00 | 61 | 1011.5 |
| 20260506113603 | 70 | 39 | 4.3 | 9.6 | 0.00 | 0.00 | 0.00 | 60 | 1011.6 |
| 20260506112703 | 72 | 77 | 3.5 | 9.6 | 0.00 | 0.00 | 0.00 | 52 | 1011.4 |
| 20260506111803 | 72 | 91 | 2.6 | 7.8 | 0.00 | 0.00 | 0.00 | 47 | 1011.6 |
| 20260506110903 | 73 | 146 | 3.5 | 7.0 | 0.00 | 0.00 | 0.00 | 44 | 1011.6 |
| 20260506110004 | 73 | 137 | 4.3 | 8.7 | 0.00 | 0.00 | 0.00 | 46 | 1011.9 |
| 20260506105403 | 73 | 146 | 4.3 | 9.6 | 0.00 | 0.00 | 0.00 | 46 | 1012.0 |
| 20260506104504 | 72 | 143 | 3.5 | 13.0 | 0.00 | 0.00 | 0.00 | 48 | 1011.8 |
| 20260506103603 | 71 | 150 | 3.5 | 9.6 | 0.00 | 0.00 | 0.00 | 50 | 1012.0 |
| 20260506102704 | 71 | 165 | 4.3 | 8.7 | 0.00 | 0.00 | 0.00 | 51 | 1012.0 |
| 20260506101803 | 71 | 153 | 3.5 | 7.0 | 0.00 | 0.00 | 0.00 | 50 | 1012.2 |
| 20260506100904 | 70 | 155 | 3.5 | 9.6 | 0.00 | 0.00 | 0.00 | 52 | 1012.0 |
| 20260506100004 | 71 | 165 | 3.5 | 9.6 | 0.00 | 0.00 | 0.00 | 52 | 1012.3 |
| 20260506095403 | 71 | 156 | 3.5 | 8.7 | 0.00 | 0.00 | 0.00 | 53 | 1012.1 |
| 20260506094503 | 70 | 139 | 4.3 | 8.7 | 0.00 | 0.00 | 0.00 | 54 | 1012.0 |
| 20260506093604 | 70 | 120 | 2.6 | 8.7 | 0.00 | 0.00 | 0.00 | 53 | 1012.2 |
| 20260506092703 | 69 | 109 | 3.5 | 9.6 | 0.00 | 0.00 | 0.00 | 57 | 1012.0 |
| 20260506091803 | 69 | 85 | 3.5 | 7.0 | 0.00 | 0.00 | 0.00 | 56 | 1012.2 |
| 20260506090903 | 69 | 138 | 3.5 | 10.4 | 0.00 | 0.00 | 0.00 | 58 | 1012.1 |
| 20260506090004 | 68 | 137 | 3.5 | 7.0 | 0.00 | 0.00 | 0.00 | 56 | 1012.0 |
| 20260506085403 | 68 | 126 | 2.6 | 7.0 | 0.00 | 0.00 | 0.00 | 56 | 1012.1 |
| 20260506084503 | 67 | 161 | 2.6 | 6.1 | 0.00 | 0.00 | 0.00 | 59 | 1012.0 |
| 20260506083603 | 68 | 124 | 2.6 | 6.1 | 0.00 | 0.00 | 0.00 | 59 | 1012.4 |
| 20260506082703 | 67 | 137 | 3.5 | 7.8 | 0.00 | 0.00 | 0.00 | 60 | 1012.2 |
| 20260506081804 | 67 | 145 | 2.6 | 7.8 | 0.00 | 0.00 | 0.00 | 64 | 1012.3 |
| 20260506080903 | 66 | 136 | 2.6 | 7.8 | 0.00 | 0.00 | 0.00 | 64 | 1012.3 |
| 20260506072704 | 64 | 118 | 2.6 | 4.3 | 0.00 | 0.00 | 0.00 | 70 | 1012.3 |
| 20260506071803 | 64 | 114 | 2.6 | 5.2 | 0.00 | 0.00 | 0.00 | 72 | 1012.3 |
| 20260506070904 | 63 | 123 | 3.5 | 6.1 | 0.00 | 0.00 | 0.00 | 77 | 1012.1 |
| 20260506061803 | 58 | 107 | 1.7 | 4.3 | 0.00 | 0.00 | 0.00 | 86 | 1012.5 |
| 20260506060904 | 58 | 67 | 1.7 | 3.5 | 0.00 | 0.00 | 0.00 | 87 | 1012.5 |
| 20260506050903 | 54 | 120 | 1.7 | 4.3 | 0.00 | 0.00 | 0.00 | 85 | 1011.9 |
| 20260506044504 | 54 | 129 | 1.7 | 4.3 | 0.00 | 0.00 | 0.00 | 83 | 1011.8 |
| 20260506043603 | 54 | 101 | 1.7 | 3.5 | 0.00 | 0.00 | 0.00 | 82 | 1011.4 |
| 20260506042703 | 55 | 94 | 0.9 | 2.6 | 0.00 | 0.00 | 0.00 | 83 | 1011.5 |
| 20260506041803 | 54 | 143 | 1.7 | 2.6 | 0.00 | 0.00 | 0.00 | 86 | 1011.4 |
| 20260506040903 | 54 | 123 | 2.6 | 5.2 | 0.00 | 0.00 | 0.00 | 84 | 1011.6 |
| 20260506040004 | 54 | 126 | 2.6 | 5.2 | 0.00 | 0.00 | 0.00 | 84 | 1011.4 |
| 20260506035403 | 55 | 132 | 1.7 | 5.2 | 0.00 | 0.00 | 0.00 | 84 | 1011.2 |
| 20260506034504 | 55 | 147 | 1.7 | 3.5 | 0.00 | 0.00 | 0.00 | 86 | 1011.2 |
| 20260506033603 | 54 | 126 | 1.7 | 4.3 | 0.00 | 0.00 | 0.00 | 86 | 1011.2 |
| 20260506032703 | 54 | 27 | 2.6 | 6.1 | 0.00 | 0.00 | 0.00 | 86 | 1011.1 |
| 20260506031803 | 54 | 82 | 2.6 | 6.1 | 0.00 | 0.00 | 0.00 | 86 | 1011.2 |
| 20260506030903 | 54 | 114 | 1.7 | 4.3 | 0.00 | 0.00 | 0.00 | 85 | 1010.9 |
| 20260506030003 | 55 | 112 | 2.6 | 5.2 | 0.00 | 0.00 | 0.00 | 84 | 1010.9 |
| 20260506025403 | 55 | 130 | 2.6 | 6.1 | 0.00 | 0.00 | 0.00 | 83 | 1010.9 |
| 20260506024503 | 56 | 62 | 2.6 | 4.3 | 0.00 | 0.00 | 0.00 | 84 | 1011.0 |
| 20260506023603 | 55 | 69 | 2.6 | 5.2 | 0.00 | 0.00 | 0.00 | 83 | 1011.1 |
| 20260506022704 | 56 | 128 | 2.6 | 4.3 | 0.00 | 0.00 | 0.00 | 83 | 1011.1 |
| 20260506021803 | 56 | 50 | 1.7 | 4.3 | 0.00 | 0.00 | 0.00 | 84 | 1010.9 |
| 20260506020903 | 56 | 99 | 1.7 | 4.3 | 0.00 | 0.00 | 0.00 | 82 | 1011.1 |
| 20260506020004 | 56 | 134 | 1.7 | 5.2 | 0.00 | 0.00 | 0.00 | 80 | 1011.1 |
| 20260506015403 | 56 | 149 | 2.6 | 4.3 | 0.00 | 0.00 | 0.00 | 79 | 1011.1 |
| 20260506014503 | 58 | 161 | 2.6 | 7.0 | 0.00 | 0.00 | 0.00 | 79 | 1011.0 |
| 20260506013603 | 57 | 341 | 1.7 | 6.1 | 0.00 | 0.00 | 0.00 | 81 | 1011.0 |
| 20260506012704 | 57 | 80 | 1.7 | 4.3 | 0.00 | 0.00 | 0.00 | 81 | 1011.1 |
| 20260506011803 | 58 | 148 | 1.7 | 2.6 | 0.00 | 0.00 | 0.00 | 79 | 1011.2 |
| 20260506010903 | 58 | 98 | 0.9 | 2.6 | 0.00 | 0.00 | 0.00 | 80 | 1011.2 |
| 20260506010004 | 58 | 137 | 1.7 | 2.6 | 0.00 | 0.00 | 0.00 | 80 | 1011.2 |
| 20260506005403 | 58 | 117 | 0.9 | 2.6 | 0.00 | 0.00 | 0.00 | 80 | 1011.1 |
| 20260506004504 | 58 | 73 | 0.9 | 4.3 | 0.00 | 0.00 | 0.00 | 80 | 1011.6 |
| 20260506003604 | 59 | 132 | 2.6 | 5.2 | 0.00 | 0.00 | 0.00 | 79 | 1011.4 |
| 20260506002703 | 60 | 125 | 0.9 | 1.7 | 0.00 | 0.00 | 0.00 | 77 | 1011.6 |
| 20260506001803 | 59 | 152 | 1.7 | 3.5 | 0.00 | 0.00 | 0.00 | 78 | 1011.7 |
| 20260506000904 | 59 | 165 | 0.9 | 4.3 | 0.00 | 0.00 | 0.00 | 78 | 1011.5 |
| 20260506000004 | 60 | 140 | 3.5 | 4.3 | 0.00 | 0.00 | 0.00 | 78 | 1011.7 |
| 20260505235403 | 60 | 123 | 2.6 | 5.2 | 0.00 | 0.00 | 0.00 | 76 | 1011.9 |
| 20260505234504 | 61 | 47 | 2.6 | 7.0 | 0.00 | 0.00 | 0.00 | 74 | 1011.8 |